Probability
0 0 0 0 0 0 0 0 0 0 0 0 0 0 0 0 0 0 0 0 0 0 0 0 0 0 0 0 0 0 0 0 0 0 0 0 0 0 0 0 0 0 0
0 0 0 0 0 0 0 0 0 0 0 0 0 0 0 0 0 0 0 0 0 0 0 0 0 0 0 0 0 0 0 0 0 0 0 0 0 0 0 0 0 0 0
0 0 0 0 0 0 0 0 0 0 0 0 0 0 0 0 0 0 0 0 0 0 0 0 0 0 0 0 0 0 0 0 0 0 0 0 0 0 0 0 0 0 0
0 0 0 0 0 0 0 0 0 0 0 0 0 0 0 0 0 0 0 0 0 0 0 0 0 0 0 0 0 0 0 0 0 0 0 0 0 0 0 0 0 0 0
0 0 0 0 0 0 0 0 0 0 0 0 0 0 0 0 0 0 0 0 0 0 0 0 0 0 0 0 0 0 0 0 0 0 0 0 0 0 0 0 0 0 0
0 0 0 0 0 0 0 0 0 0 0 0 0 0 0 0 0 0 0 0 0 0 0 0 0 0 0 0 0 0 0 0 0 0 0 0 0 0 0 0 0 0 0
0 0 0 0 0 0 0 0 0 0 0 0 0 0 0 0 0 0 0 0 0 0 0 0 0 0 0 0 0 0 0 0 0 0 0 0 0 0 0 0 0 0 0
0 0 0 0 0 0 0 0 0 0 0 0 0 0 0 0 0 0 0 0 0 0 0 0 0 0 0 0 0 0 0 0 0 0 0 0 0 0 0 0 0 0 0
0 0 0 0 0 0 0 0 0 0 0 0 0 0 0 0 0 0 0 0 0 0 0 0 0 0 0 0 0 0 0 0 0 0 0 0 0 0 0 0 0 0 0
0 0 0 0 0 0 0 0 0 0 0 0 0 0 0 0 0 0 0 0 0 0 0 0 0 0 0 0 0 0 0 0 0 0 0 0 0 0 0 0 0 0 0
0 0 0 0 0 0 0 0 0 0 0 0 0 0 0 0 0 0 0 0 0 0 0 0 0 0 0 0 0 0 0 0 0 0 0 0 0 0 0 0 0 0 0
0 0 0 0 0 0 0 0 0 0 0 0 0 0 0 0 0 0 0 0 0 0 0 0 0 0 0 0 0 0 0 0 0 0 0 0 0 0 0 0 0 0 0
0 0 0 0 0 0 0 0 0 0 0 0 0 0 0 0 0 0 0 0 0 0 0 0 0 0 0 0 0 0 0 0 0 0 0 0 0 0 0 0 0 0 0
0 0 0 0 0 0 0 0 0 0 0 0 0 0 0 0 0 0 0 0 0 0 0 0 0 0 0 0 0 0 0 0 0 0 0 0 0 0 0 0 0 0 0
0 0 0 0 0 0 0 0 0 0 0 0 0 0 0 0 0 0 0 0 0 0 0 0 0 0 0 0 0 0 0 0 0 0 0 0 0 0 0 0 0 0 0
0 0 0 0 0 0 0 0 0 0 0 0 0 0 0 0 0 0 0 0 0 0 0 0 0 0 0 0 0 0 0 0 0 0 0 0 0 0 0 0 0 0 0
0 0 0 0 0 0 0 0 0 0 0 0 0 0 0 0 0 0 0 0 0 0 0 0 0 0 0 0 0 0 0 0 0 0 0 0 0 0 0 0 0 0 0
0 0 0 0 0 0 0 0 0 0 0 0 0 0 0 0 0 0 0 0 0 0 0 0 0 0 0 0 0 0 0 0 0 0 0 0 0 0 0 0 0 0 0
0 0 0 0 0 0 0 0 0 0 0 0 0 0 0 0 0 0 0 0 0 0 0 0 0 0 0 0 0 0 0 0 0 0 0 0 0 0 0 0 0 0 0
0 0 0 0 0 0 0 0 0 0 0 0 0 0 0 0 0 0 0 0 0 0 0 0 0 0 0 0 0 0 0 0 0 0 0 0 0 0 0 0 0 0 0
0 0 0 0 0 0 0 0 0 0 0 0 0 0 0 0 0 0 0 0 0 0 0 0 0 0 0 0 0 0 0 0 0 0 0 0 0 0 0 0 0 0 0
0 0 0 0 0 0 0 0 0 0 0 0 0 0 0 0 0 0 0 0 0 0 0 0 0 0 0 0 0 0 0 0 0 0 0 0 0 0 0 0 0 0 0
0 0 0 0 0 0 0 0 0 0 0 0 0 0 0 0 0 0 0 0 0 0 0 0 0 0 0 0 0 0 0 0 0 0 0 0 0 0 0 0 0 0 0
0 0 0 0 0 0 0 0 0 0 0 0 0 0 0 0 0 0 0 0 0 0 0 0 0 0 0 0 0 0 0 0 0 0 0 0 0 0 0 0 0 0 0
0 0 0 0 0 0 0 0 0 0 0 0 0 0 0 0 0 0 0 0 0 0 0 0 0 0 0 0 0 0 0 0 0 0 0 0 0 0 0 0 0 0 0
0 0 0 0 0 0 0 0 0 0 0 0 0 0 0 0 0 0 0 0 0 0 0 0 0 0 0 0 0 0 0 0 0 0 0 0 0 0 0 0 0 0 0
Wind_Speed
5 5 4 4 4 4 5 5 6 8 9 9 10 11 11 10 9 8 8 21 24 24 25 25 25 25 26 26 26 26 26 27 27 27 27 27 27 27 27 27 26 26 26
6 6 6 5 5 5 5 6 7 8 8 9 11 11 10 9 10 9 8 12 22 24 24 25 25 25 25 25 26 26 26 26 26 26 26 26 27 27 27 27 27 27 26
7 7 6 5 5 6 7 7 8 8 9 9 11 10 9 9 9 10 9 8 9 18 23 24 25 25 25 25 26 26 26 26 26 26 26 26 26 26 26 27 27 27 27
8 7 6 6 6 6 6 7 7 9 8 8 8 7 7 7 9 9 9 8 7 8 14 23 24 24 25 25 25 25 25 26 26 26 26 26 26 26 27 27 27 27 27
8 8 7 6 7 6 6 7 6 7 9 9 8 7 6 6 6 8 9 9 8 8 7 15 21 23 24 25 25 25 25 25 25 25 26 26 26 26 27 27 27 27 27
8 9 7 8 7 7 7 8 10 7 7 8 10 8 5 5 5 6 7 6 7 8 8 9 9 13 22 23 24 25 25 25 25 25 25 26 26 26 26 27 27 27 27
8 8 8 8 7 8 9 10 11 10 6 5 6 5 4 4 5 5 4 5 7 6 7 8 7 7 8 19 22 24 24 25 25 25 25 25 26 26 27 27 27 27 28
7 8 9 8 7 9 10 10 10 6 3 1 4 4 3 1 3 4 4 5 5 5 6 8 7 8 6 5 14 22 23 24 24 24 25 25 25 26 27 27 28 28 28
6 7 8 8 8 8 9 8 8 9 6 2 2 4 5 4 1 2 3 3 4 4 4 4 6 7 8 6 6 15 21 22 23 23 24 24 25 26 26 27 28 28 29
6 7 8 8 7 6 8 7 5 5 7 5 3 3 3 4 5 2 1 2 3 3 3 3 4 4 6 5 8 15 19 20 21 22 23 24 24 25 26 27 28 28 29
5 6 7 8 7 6 7 7 6 6 4 5 4 3 4 4 3 4 2 2 2 1 2 2 2 2 4 5 5 11 18 20 20 21 21 22 24 25 26 27 28 28 29
4 5 6 7 7 7 7 7 7 8 6 6 5 4 4 4 3 3 3 1 2 2 1 0 1 1 2 4 7 15 18 19 20 21 21 22 23 24 25 27 28 28 29
4 6 7 7 6 7 7 7 8 7 7 8 6 4 3 3 4 4 4 2 1 2 2 1 1 1 2 3 5 15 15 19 20 21 21 22 23 24 25 27 28 28 29
7 8 8 7 8 8 8 7 7 6 6 7 7 6 5 4 3 3 4 4 2 1 2 3 1 1 1 2 8 13 9 18 19 21 21 23 23 24 26 27 28 29 29
8 10 9 9 8 8 8 8 7 7 7 6 7 7 5 3 3 3 3 3 4 2 2 3 2 1 1 2 8 5 7 15 19 20 21 22 23 24 26 27 28 29 30
10 11 10 10 9 8 8 7 7 7 7 6 5 7 5 4 4 3 3 3 2 4 3 3 3 3 2 4 8 5 7 16 16 19 21 22 23 24 25 26 28 30 31
12 13 12 11 11 9 8 8 7 8 9 7 6 7 6 5 4 3 3 3 3 3 4 3 3 2 3 4 5 5 6 6 8 17 20 22 23 23 25 27 29 30 30
12 12 12 11 11 10 9 10 10 9 9 10 8 7 7 5 5 4 4 4 4 4 4 4 3 3 5 4 5 6 6 6 6 15 20 22 21 23 25 28 29 29 29
12 11 12 12 12 11 10 9 9 9 9 9 9 9 8 8 7 5 5 5 4 4 4 5 4 3 4 4 5 6 6 5 7 11 17 17 19 23 26 27 28 28 28
13 13 12 11 11 10 10 9 9 8 7 7 7 7 8 9 8 7 6 6 5 5 5 5 5 4 4 4 4 5 7 5 7 9 10 12 18 22 24 25 26 27 28
13 12 11 10 9 9 10 10 9 9 8 7 6 7 7 10 11 9 7 7 7 6 5 5 5 4 5 3 3 3 7 10 9 4 7 8 11 11 12 18 22 25 29
12 12 12 12 11 10 16 19 12 9 8 9 8 7 7 8 12 16 16 14 12 8 7 5 6 7 8 4 3 5 6 8 7 3 8 13 9 11 10 9 21 29 30
13 13 12 12 12 14 20 20 18 9 9 8 8 7 7 7 9 8 12 17 15 18 17 9 9 10 7 5 4 7 7 8 9 7 9 12 9 11 10 12 26 29 28
13 13 13 13 11 13 20 20 18 10 7 8 8 8 9 8 9 9 8 9 10 11 12 9 9 9 6 5 6 7 7 6 8 6 6 8 8 10 12 12 20 24 25
12 11 11 12 11 12 19 19 17 7 7 9 8 8 9 9 13 15 10 9 11 11 14 18 19 16 17 16 11 3 2 3 7 4 2 5 6 10 12 10 11 20 25
10 10 9 10 10 9 16 19 18 6 8 8 7 8 12 14 15 16 11 9 12 11 6 7 10 12 10 9 12 6 4 4 4 5 3 4 5 7 10 7 8 11 15
Wind_Direction
144 131 118 107 102 101 100 97 93 88 84 80 78 77 73 67 61 53 45 50 52 51 51 51 49 49 48 47 45 43 41 38 35 32 28 25 21 18 15 11 7 5 3
144 136 126 116 106 104 101 99 99 94 87 86 82 78 75 69 63 60 51 44 48 50 49 49 48 47 46 45 42 40 38 35 32 28 25 21 19 16 13 9 7 3 359
140 136 129 120 113 111 107 102 96 93 92 89 84 78 75 70 65 59 54 48 39 44 48 48 46 44 43 41 39 37 34 31 28 24 21 17 14 11 8 5 2 359 357
136 132 128 123 120 114 112 109 107 102 96 93 87 78 71 68 64 60 57 51 46 40 40 47 45 43 41 39 36 34 31 28 25 21 17 13 9 6 3 -0 357 355 352
134 130 126 125 122 113 110 114 108 112 110 103 94 79 65 60 56 60 59 53 50 47 40 43 44 41 38 35 33 30 28 25 22 17 13 9 5 2 358 355 353 350 347
130 126 124 126 124 118 114 116 112 103 110 113 102 84 66 61 56 53 54 52 51 51 47 48 40 34 34 32 29 27 24 22 19 14 10 6 2 358 355 351 348 346 343
131 130 129 129 129 126 129 128 121 111 105 116 105 92 59 55 60 50 47 55 51 47 50 50 47 41 27 27 25 24 21 18 15 11 8 4 360 356 352 349 346 343 340
131 134 135 134 131 127 128 134 131 120 108 69 127 125 116 34 28 37 39 53 50 44 52 54 51 45 36 23 17 21 19 15 11 8 5 1 358 354 350 347 344 341 337
123 130 134 133 135 137 143 147 146 137 137 76 62 142 147 173 157 358 25 43 45 49 46 54 56 47 38 25 6 11 15 11 8 4 1 358 355 351 348 345 342 339 336
121 127 130 130 131 133 139 143 139 131 133 135 92 53 91 134 139 135 333 14 47 57 48 56 57 51 40 25 11 11 11 6 3 0 357 354 351 348 345 342 339 337 334
118 127 131 129 130 131 132 130 128 127 126 137 137 130 94 70 83 130 157 325 354 28 52 74 76 58 39 23 358 3 6 0 358 355 352 350 347 344 341 339 337 334 332
124 131 130 129 130 130 131 131 127 123 120 120 122 129 136 135 135 127 141 202 297 303 333 93 98 67 41 20 360 4 359 354 351 349 347 345 342 340 338 336 334 332 330
156 161 146 140 134 130 128 125 121 120 123 124 124 116 115 121 131 127 127 144 238 302 311 276 170 104 33 14 342 0 351 347 344 343 342 340 338 337 335 333 331 329 327
160 160 151 143 135 132 130 124 120 121 122 121 121 120 116 115 120 133 140 143 144 309 301 286 267 198 356 351 340 354 339 338 336 337 337 336 334 332 331 330 328 326 324
152 154 151 145 140 137 136 132 131 131 128 124 128 125 121 122 117 117 124 140 146 177 269 287 289 252 284 324 332 337 326 323 330 330 330 329 328 328 328 327 326 324 322
154 156 154 149 145 144 143 135 135 138 132 131 135 134 130 133 130 127 131 133 139 162 223 257 255 261 279 297 314 319 306 317 320 322 324 323 325 326 326 325 324 323 321
160 164 161 157 156 155 152 148 149 151 145 143 146 148 148 147 145 146 144 149 159 161 213 262 257 257 263 265 292 287 286 289 303 316 318 321 323 324 325 325 323 321 320
167 166 162 161 162 163 162 162 161 163 160 161 163 159 161 159 162 164 168 178 184 187 201 249 265 258 254 257 276 287 297 300 298 308 316 319 321 324 325 323 321 320 320
168 167 167 169 170 169 170 172 169 171 173 171 170 172 173 170 180 181 186 193 196 203 204 231 261 255 264 265 289 289 285 278 295 308 313 316 321 323 322 321 320 320 319
173 175 176 174 172 171 173 173 174 175 176 176 177 180 179 185 190 187 195 202 199 207 213 233 254 261 261 263 278 304 313 310 310 309 308 319 319 320 319 318 318 318 316
179 176 173 171 170 174 179 178 179 178 179 181 187 192 195 200 203 199 202 200 198 208 213 229 251 263 266 270 281 296 307 314 310 299 318 314 315 312 314 316 317 315 318
176 174 178 177 179 187 191 190 182 182 184 189 197 202 204 209 219 222 225 221 210 206 209 217 242 254 265 258 263 283 300 312 311 317 325 312 314 308 311 308 312 317 317
176 179 181 181 187 195 195 195 194 184 190 198 201 201 208 213 210 223 236 240 237 236 227 218 239 249 257 250 261 279 279 282 282 308 316 301 308 305 308 309 313 312 314
181 183 184 187 188 198 198 198 196 190 198 208 209 207 212 214 209 212 223 236 242 245 244 244 246 254 250 245 244 263 279 288 285 277 282 286 302 304 307 305 306 309 316
181 184 182 183 189 198 201 201 196 191 209 222 219 215 218 222 227 225 224 236 249 252 253 249 249 254 258 262 260 257 269 295 295 293 250 267 296 311 304 297 302 312 316
177 175 179 184 189 193 202 204 203 196 216 227 224 223 226 229 235 234 229 230 248 255 240 248 254 259 261 263 264 251 226 235 262 288 274 283 296 319 308 294 304 310 312